Chippewa, MI

2:58 AM EST on December 16, 2019 (GMT -0500)
Chippewa County International

Weather History for KCIU - November, 2019

Change the Weather History Date:

Sunday, November 17, 2019

  Actual Average Record
Temperature  
Mean Temperature 28 °F -  
Max Temperature 34 °F 38 °F 55 °F (2013)
Min Temperature 21 °F 22 °F 10 °F (1989)
Degree Days  
Heating Degree Days 38    
Moisture  
Dew Point 24 °F    
Average Humidity 78    
Maximum Humidity 86    
Minimum Humidity 69    
Precipitation  
Precipitation 0.00 in - - ()
Sea Level Pressure  
Sea Level Pressure 30.06 in    
Wind  
Wind Speed 9 mph ()    
Max Wind Speed 14 mph    
Max Gust Speed -    
Visibility 10.0 miles    
Events      
Averages and records for this station are not official NWS values.
T = Trace of Precipitation, MM = Missing Value Source: Averaged Metar Reports

Daily Weather History Graph

Daily Weather History Graph

Search for Another Location

Airport or City:

Astronomy

Nov. 17, 2019 Rise Set
Actual Time 7:41 AM EST 5:03 PM EST
Civil Twilight 7:08 AM EST 5:36 PM EST
Nautical Twilight 6:32 AM EST 6:12 PM EST
Astronomical Twilight 5:56 AM EST 6:48 PM EST
Moon 9:34 PM EST (11/17) 12:31 PM EST (11/17)
Length of Visible Light 10h 27m
Length of Day
9h 22m
Waning Gibbous, 73% of the Moon is Illuminated
Nov 17
Waning Gibbous
Nov 19
Last Quarter
Nov 26
New
Dec 4
First Quarter
Dec 12
Full

Hourly Weather History & Observations

Time (EST) Temp. Windchill Dew Point Humidity Pressure Visibility Wind Dir Wind Speed Gust Speed Precip Events Conditions
12:56 AM 28.9 °F 18.6 °F 21.0 °F 72% 30.28 in 10.0 mi SSE 12.7 mph - N/A   Clear
1:56 AM 28.9 °F 18.2 °F 19.9 °F 69% 30.27 in 10.0 mi SSE 13.8 mph - N/A   Clear
2:56 AM 28.0 °F 18.1 °F 19.9 °F 72% 30.25 in 10.0 mi South 11.5 mph - N/A   Clear
3:56 AM 27.0 °F 16.7 °F 19.9 °F 75% 30.23 in 10.0 mi South 11.5 mph - N/A   Mostly Cloudy
4:56 AM 26.1 °F 17.6 °F 19.9 °F 78% 30.21 in 10.0 mi SSE 8.1 mph - N/A   Clear
5:56 AM 24.1 °F 13.7 °F 19.0 °F 81% 30.19 in 10.0 mi SSE 10.4 mph - N/A   Clear
6:56 AM 21.9 °F 11.7 °F 18.0 °F 85% 30.17 in 10.0 mi SE 9.2 mph - N/A   Clear
7:56 AM 24.1 °F 13.1 °F 19.9 °F 84% 30.14 in 10.0 mi SE 11.5 mph - N/A   Partly Cloudy
8:56 AM 26.1 °F 16.2 °F 21.9 °F 84% 30.12 in 10.0 mi SSE 10.4 mph - N/A   Clear
9:56 AM 30.0 °F 20.5 °F 26.1 °F 85% 30.11 in 10.0 mi South 11.5 mph - N/A   Mostly Cloudy
10:29 AM 30.2 °F 20.2 °F 26.6 °F 86% 30.06 in 10.0 mi SSE 12.7 mph - N/A   Mostly Cloudy
10:37 AM 30.2 °F 21.3 °F 26.6 °F 86% 30.06 in 10.0 mi SSE 10.4 mph - N/A   Mostly Cloudy
10:56 AM 32.0 °F 22.5 °F 27.0 °F 82% 30.09 in 10.0 mi South 12.7 mph - N/A   Mostly Cloudy
11:56 AM 33.1 °F 24.9 °F 27.0 °F 78% 30.06 in 10.0 mi SSE 10.4 mph - N/A   Overcast
1:56 PM 34.0 °F 26.0 °F 27.0 °F 75% 30.00 in 10.0 mi SSE 10.4 mph - N/A   Overcast
2:56 PM 34.0 °F 28.8 °F 27.0 °F 75% 29.99 in 10.0 mi SSE 5.8 mph - N/A   Overcast
3:56 PM 34.0 °F 27.2 °F 27.0 °F 75% 29.97 in 10.0 mi SE 8.1 mph - N/A   Overcast
4:56 PM 34.0 °F 28.0 °F 27.0 °F 75% 29.96 in 10.0 mi SE 6.9 mph - N/A   Overcast
5:56 PM 33.1 °F 26.9 °F 27.0 °F 78% 29.94 in 10.0 mi ESE 6.9 mph - N/A   Overcast
6:56 PM 34.0 °F 28.0 °F 27.0 °F 75% 29.93 in 10.0 mi SE 6.9 mph - N/A   Overcast
7:56 PM 34.0 °F 28.0 °F 27.0 °F 75% 29.92 in 10.0 mi SE 6.9 mph - N/A   Overcast
8:56 PM 33.1 °F 27.7 °F 26.1 °F 75% 29.91 in 10.0 mi SE 5.8 mph - N/A   Overcast
9:56 PM 33.1 °F 26.9 °F 27.0 °F 78% 29.88 in 10.0 mi SSE 6.9 mph - 0.00 in   Overcast
10:56 PM 34.0 °F 27.2 °F 26.1 °F 73% 29.88 in 10.0 mi SSE 8.1 mph - N/A   Overcast
11:56 PM 33.1 °F 26.9 °F 25.0 °F 72% 29.86 in 10.0 mi SSE 6.9 mph - N/A   Overcast